Time,TemperatureF,DewpointF,PressureIn,WindDirection,WindDirectionDegrees,WindSpeedMPH,WindSpeedGustMPH,Humidity,HourlyPrecipIn,Conditions,Clouds,dailyrainin,SoftwareType,DateUTC
2013-05-15 00:02:00,57.9,42.3,30.03,WSW,239,1.3,3.0,56,0.00,NA,NA,0.00,WeatherLink_script,2013-05-15 04:02:00,
2013-05-15 00:03:00,57.9,42.8,30.03,WSW,239,1.1,2.0,57,0.00,NA,NA,0.00,WeatherLink_script,2013-05-15 04:03:00,
2013-05-15 00:06:00,57.9,43.2,30.03,WSW,239,2.1,3.0,58,0.00,NA,NA,0.00,WeatherLink_script,2013-05-15 04:06:00,
2013-05-15 00:07:00,57.9,42.8,30.02,WSW,239,2.5,4.0,57,0.00,NA,NA,0.00,WeatherLink_script,2013-05-15 04:07:00,
2013-05-15 00:12:00,57.7,42.1,30.01,WSW,239,2.1,3.0,56,0.00,NA,NA,0.00,WeatherLink_script,2013-05-15 04:12:00,
2013-05-15 00:16:00,57.7,42.6,30.01,WSW,239,1.7,3.0,57,0.00,NA,NA,0.00,WeatherLink_script,2013-05-15 04:16:00,
2013-05-15 00:21:00,57.5,42.4,30.01,SW,229,1.7,3.0,57,0.00,NA,NA,0.00,WeatherLink_script,2013-05-15 04:21:00,
2013-05-15 00:26:00,57.3,42.2,30.01,SSW,212,2.5,3.0,57,0.00,NA,NA,0.00,WeatherLink_script,2013-05-15 04:26:00,
2013-05-15 00:31:00,57.1,42.5,30.01,WSW,245,2.4,3.0,58,0.00,NA,NA,0.00,WeatherLink_script,2013-05-15 04:31:00,
2013-05-15 00:36:00,57.1,42.9,30.01,WSW,248,2.7,5.0,59,0.00,NA,NA,0.00,WeatherLink_script,2013-05-15 04:36:00,
2013-05-15 00:41:00,57.1,42.9,30.00,WSW,248,2.5,4.0,59,0.00,NA,NA,0.00,WeatherLink_script,2013-05-15 04:41:00,
2013-05-15 00:46:00,57.0,42.9,30.01,WSW,250,1.3,3.0,59,0.00,NA,NA,0.00,WeatherLink_script,2013-05-15 04:46:00,
2013-05-15 00:51:00,57.0,42.8,30.01,WSW,251,2.1,3.0,59,0.00,NA,NA,0.00,WeatherLink_script,2013-05-15 04:51:00,
2013-05-15 00:56:00,57.1,42.9,30.00,WSW,253,2.3,5.0,59,0.00,NA,NA,0.00,WeatherLink_script,2013-05-15 04:56:00,
2013-05-15 01:01:00,57.1,42.9,30.00,SW,231,1.8,3.0,59,0.00,NA,NA,0.00,WeatherLink_script,2013-05-15 05:01:00,
2013-05-15 01:06:00,57.1,42.9,30.00,SSW,196,2.8,5.0,59,0.00,NA,NA,0.00,WeatherLink_script,2013-05-15 05:06:00,
2013-05-15 01:11:00,57.1,42.9,30.00,SSW,196,2.2,4.0,59,0.00,NA,NA,0.00,WeatherLink_script,2013-05-15 05:11:00,
2013-05-15 01:16:00,57.0,42.8,29.99,SSW,196,1.9,3.0,59,0.00,NA,NA,0.00,WeatherLink_script,2013-05-15 05:16:00,
2013-05-15 01:21:00,57.0,43.3,29.99,South,174,1.6,3.0,60,0.00,NA,NA,0.00,WeatherLink_script,2013-05-15 05:21:00,
2013-05-15 01:26:00,56.8,43.5,29.99,South,176,0.3,1.0,61,0.00,NA,NA,0.00,WeatherLink_script,2013-05-15 05:26:00,
2013-05-15 01:31:00,56.7,43.4,29.99,South,176,0.9,3.0,61,0.00,NA,NA,0.00,WeatherLink_script,2013-05-15 05:31:00,
2013-05-15 01:36:00,56.7,43.4,30.00,South,176,0.9,2.0,61,0.00,NA,NA,0.00,WeatherLink_script,2013-05-15 05:36:00,
2013-05-15 01:41:00,56.5,43.2,29.99,South,180,1.8,3.0,61,0.00,NA,NA,0.00,WeatherLink_script,2013-05-15 05:41:00,
2013-05-15 01:46:00,56.4,43.1,29.99,SSW,193,1.8,3.0,61,0.00,NA,NA,0.00,WeatherLink_script,2013-05-15 05:46:00,
2013-05-15 01:51:00,56.2,43.0,29.98,SSW,194,2.0,3.0,61,0.00,NA,NA,0.00,WeatherLink_script,2013-05-15 05:51:00,
2013-05-15 01:56:00,56.2,42.9,29.98,SSW,194,1.8,3.0,61,0.00,NA,NA,0.00,WeatherLink_script,2013-05-15 05:56:00,
2013-05-15 02:02:00,55.9,42.7,29.98,SSW,194,1.9,3.0,61,0.00,NA,NA,0.00,WeatherLink_script,2013-05-15 06:02:00,
2013-05-15 02:07:00,55.8,43.4,29.98,SSW,194,2.1,3.0,63,0.00,NA,NA,0.00,WeatherLink_script,2013-05-15 06:07:00,
2013-05-15 02:12:00,55.5,43.1,29.98,SSW,194,1.4,2.0,63,0.00,NA,NA,0.00,WeatherLink_script,2013-05-15 06:12:00,
2013-05-15 02:17:00,55.3,42.9,29.98,SSW,194,1.6,3.0,63,0.00,NA,NA,0.00,WeatherLink_script,2013-05-15 06:17:00,
2013-05-15 02:23:00,55.0,42.7,29.97,SSW,194,1.1,3.0,63,0.00,NA,NA,0.00,WeatherLink_script,2013-05-15 06:23:00,
2013-05-15 02:28:00,54.9,42.6,29.97,SW,218,2.4,3.0,63,0.00,NA,NA,0.00,WeatherLink_script,2013-05-15 06:28:00,
2013-05-15 02:33:00,54.9,43.0,29.97,SW,229,1.8,3.0,64,0.00,NA,NA,0.00,WeatherLink_script,2013-05-15 06:33:00,
2013-05-15 02:38:00,54.7,42.8,29.97,WSW,240,1.8,3.0,64,0.00,NA,NA,0.00,WeatherLink_script,2013-05-15 06:38:00,
2013-05-15 02:43:00,54.6,43.1,29.97,WSW,245,1.5,3.0,65,0.00,NA,NA,0.00,WeatherLink_script,2013-05-15 06:43:00,
2013-05-15 02:48:00,54.5,43.0,29.96,South,184,2.1,4.0,65,0.00,NA,NA,0.00,WeatherLink_script,2013-05-15 06:48:00,
2013-05-15 02:53:00,54.5,43.4,29.97,SSW,201,1.6,3.0,66,0.00,NA,NA,0.00,WeatherLink_script,2013-05-15 06:53:00,
2013-05-15 02:58:00,54.3,43.2,29.96,SSW,203,2.2,4.0,66,0.00,NA,NA,0.00,WeatherLink_script,2013-05-15 06:58:00,
2013-05-15 03:03:00,54.3,43.6,29.96,SSW,207,1.3,2.0,67,0.00,NA,NA,0.00,WeatherLink_script,2013-05-15 07:03:00,
2013-05-15 03:08:00,54.2,43.5,29.96,SSW,207,1.5,3.0,67,0.00,NA,NA,0.00,WeatherLink_script,2013-05-15 07:08:00,
2013-05-15 03:13:00,54.0,43.3,29.96,SSW,209,0.3,1.0,67,0.00,NA,NA,0.00,WeatherLink_script,2013-05-15 07:13:00,
2013-05-15 03:18:00,53.9,43.2,29.96,SSW,209,1.3,2.0,67,0.00,NA,NA,0.00,WeatherLink_script,2013-05-15 07:18:00,
2013-05-15 03:23:00,53.8,43.5,29.96,SSW,208,0.9,2.0,68,0.00,NA,NA,0.00,WeatherLink_script,2013-05-15 07:23:00,
2013-05-15 03:28:00,53.6,43.3,29.96,SSW,208,0.9,2.0,68,0.00,NA,NA,0.00,WeatherLink_script,2013-05-15 07:28:00,
2013-05-15 03:33:00,53.5,43.5,29.96,SSW,208,1.0,2.0,69,0.00,NA,NA,0.00,WeatherLink_script,2013-05-15 07:33:00,
2013-05-15 03:38:00,53.3,43.4,29.96,SSW,208,1.2,2.0,69,0.00,NA,NA,0.00,WeatherLink_script,2013-05-15 07:38:00,
2013-05-15 03:43:00,53.3,43.4,29.96,SSW,208,0.7,2.0,69,0.00,NA,NA,0.00,WeatherLink_script,2013-05-15 07:43:00,
2013-05-15 03:48:00,53.2,43.2,29.96,SSW,208,0.6,2.0,69,0.00,NA,NA,0.00,WeatherLink_script,2013-05-15 07:48:00,
2013-05-15 03:53:00,53.0,43.1,29.95,SSW,208,1.1,3.0,69,0.00,NA,NA,0.00,WeatherLink_script,2013-05-15 07:53:00,
2013-05-15 03:58:00,53.0,43.5,29.95,SSW,207,0.8,2.0,70,0.00,NA,NA,0.00,WeatherLink_script,2013-05-15 07:58:00,
2013-05-15 04:03:00,52.9,43.7,29.95,SSW,207,0.5,2.0,71,0.00,NA,NA,0.00,WeatherLink_script,2013-05-15 08:03:00,
2013-05-15 04:09:00,52.7,43.6,29.95,SSW,207,0.2,1.0,71,0.00,NA,NA,0.00,WeatherLink_script,2013-05-15 08:09:00,
2013-05-15 04:14:00,52.6,43.5,29.95,SSW,207,0.5,2.0,71,0.00,NA,NA,0.00,WeatherLink_script,2013-05-15 08:14:00,
2013-05-15 04:19:00,52.6,43.5,29.95,SSW,207,0.9,2.0,71,0.00,NA,NA,0.00,WeatherLink_script,2013-05-15 08:19:00,
2013-05-15 04:24:00,52.4,42.9,29.95,SSW,207,0.2,2.0,70,0.00,NA,NA,0.00,WeatherLink_script,2013-05-15 08:24:00,
2013-05-15 04:29:00,52.4,43.3,29.95,SSW,207,0.8,2.0,71,0.00,NA,NA,0.00,WeatherLink_script,2013-05-15 08:29:00,
2013-05-15 04:34:00,52.3,43.2,29.95,SSW,207,1.0,2.0,71,0.00,NA,NA,0.00,WeatherLink_script,2013-05-15 08:34:00,
2013-05-15 04:39:00,52.3,43.2,29.95,SSW,207,0.7,2.0,71,0.00,NA,NA,0.00,WeatherLink_script,2013-05-15 08:39:00,
2013-05-15 04:44:00,52.1,43.0,29.95,SSW,207,0.7,2.0,71,0.00,NA,NA,0.00,WeatherLink_script,2013-05-15 08:44:00,
2013-05-15 04:49:00,52.1,43.4,29.95,SSW,207,1.0,2.0,72,0.00,NA,NA,0.00,WeatherLink_script,2013-05-15 08:49:00,
2013-05-15 04:54:00,52.1,43.4,29.95,SSW,207,0.7,2.0,72,0.00,NA,NA,0.00,WeatherLink_script,2013-05-15 08:54:00,
2013-05-15 04:59:00,52.0,43.3,29.95,SSW,207,1.0,2.0,72,0.00,NA,NA,0.00,WeatherLink_script,2013-05-15 08:59:00,
2013-05-15 05:04:00,51.9,43.5,29.95,SSW,207,0.8,2.0,73,0.00,NA,NA,0.00,WeatherLink_script,2013-05-15 09:04:00,
2013-05-15 05:09:00,51.8,43.4,29.95,SSW,207,0.9,2.0,73,0.00,NA,NA,0.00,WeatherLink_script,2013-05-15 09:09:00,
2013-05-15 05:14:00,51.8,43.4,29.95,South,171,1.3,3.0,73,0.00,NA,NA,0.00,WeatherLink_script,2013-05-15 09:14:00,
2013-05-15 05:19:00,51.8,43.4,29.95,SE,139,2.1,4.0,73,0.00,NA,NA,0.00,WeatherLink_script,2013-05-15 09:19:00,
2013-05-15 05:24:00,51.8,43.4,29.95,SE,137,1.3,3.0,73,0.00,NA,NA,0.00,WeatherLink_script,2013-05-15 09:24:00,
2013-05-15 05:29:00,51.7,43.3,29.95,SE,137,1.5,2.0,73,0.00,NA,NA,0.00,WeatherLink_script,2013-05-15 09:29:00,
2013-05-15 05:34:00,51.5,43.5,29.95,SE,137,0.6,2.0,74,0.00,NA,NA,0.00,WeatherLink_script,2013-05-15 09:34:00,
2013-05-15 05:39:00,51.4,43.4,29.95,SE,137,0.6,1.0,74,0.00,NA,NA,0.00,WeatherLink_script,2013-05-15 09:39:00,
2013-05-15 05:44:00,51.2,43.6,29.95,SE,137,0.6,2.0,75,0.00,NA,NA,0.00,WeatherLink_script,2013-05-15 09:44:00,
2013-05-15 05:49:00,51.1,43.5,29.95,SE,137,1.1,2.0,75,0.00,NA,NA,0.00,WeatherLink_script,2013-05-15 09:49:00,
2013-05-15 05:54:00,51.1,43.5,29.95,SE,137,0.5,1.0,75,0.00,NA,NA,0.00,WeatherLink_script,2013-05-15 09:54:00,
2013-05-15 05:59:00,50.9,43.3,29.95,SE,138,1.0,3.0,75,0.00,NA,NA,0.00,WeatherLink_script,2013-05-15 09:59:00,
2013-05-15 06:04:00,50.9,43.6,29.95,SE,139,0.0,0.0,76,0.00,NA,NA,0.00,WeatherLink_script,2013-05-15 10:04:00,
2013-05-15 06:09:00,50.8,43.5,29.95,SE,139,0.0,0.0,76,0.00,NA,NA,0.00,WeatherLink_script,2013-05-15 10:09:00,
2013-05-15 06:14:00,50.8,43.5,29.95,SE,138,1.7,3.0,76,0.00,NA,NA,0.00,WeatherLink_script,2013-05-15 10:14:00,
2013-05-15 06:19:00,50.8,43.5,29.95,SE,137,1.2,3.0,76,0.00,NA,NA,0.00,WeatherLink_script,2013-05-15 10:19:00,
2013-05-15 06:24:00,50.8,43.8,29.95,SE,137,1.8,3.0,77,0.00,NA,NA,0.00,WeatherLink_script,2013-05-15 10:24:00,
2013-05-15 06:29:00,50.8,43.8,29.95,SE,138,1.2,2.0,77,0.00,NA,NA,0.00,WeatherLink_script,2013-05-15 10:29:00,
2013-05-15 06:34:00,51.0,44.0,29.95,SSE,159,2.0,4.0,77,0.00,NA,NA,0.00,WeatherLink_script,2013-05-15 10:34:00,
2013-05-15 06:39:00,51.1,44.1,29.96,South,173,1.6,3.0,77,0.00,NA,NA,0.00,WeatherLink_script,2013-05-15 10:39:00,
2013-05-15 06:44:00,51.1,44.1,29.96,South,173,2.3,4.0,77,0.00,NA,NA,0.00,WeatherLink_script,2013-05-15 10:44:00,
2013-05-15 06:49:00,51.2,44.2,29.95,South,180,2.3,3.0,77,0.00,NA,NA,0.00,WeatherLink_script,2013-05-15 10:49:00,
2013-05-15 06:54:00,51.2,44.3,29.96,South,180,3.1,5.0,77,0.00,NA,NA,0.00,WeatherLink_script,2013-05-15 10:54:00,
2013-05-15 06:59:00,51.4,44.8,29.96,South,182,3.3,5.0,78,0.00,NA,NA,0.00,WeatherLink_script,2013-05-15 10:59:00,
2013-05-15 07:04:00,51.4,44.5,29.96,South,183,3.0,5.0,77,0.00,NA,NA,0.00,WeatherLink_script,2013-05-15 11:04:00,
2013-05-15 07:09:00,51.5,44.5,29.95,South,186,2.5,4.0,77,0.00,NA,NA,0.00,WeatherLink_script,2013-05-15 11:09:00,
2013-05-15 07:14:00,51.5,44.5,29.96,South,183,3.1,4.0,77,0.00,NA,NA,0.00,WeatherLink_script,2013-05-15 11:14:00,
2013-05-15 07:19:00,51.5,44.5,29.96,South,183,2.4,4.0,77,0.00,NA,NA,0.00,WeatherLink_script,2013-05-15 11:19:00,
2013-05-15 07:24:00,51.5,44.6,29.95,South,181,3.2,4.0,77,0.00,NA,NA,0.00,WeatherLink_script,2013-05-15 11:24:00,
2013-05-15 07:29:00,51.7,45.1,29.96,South,182,2.9,4.0,78,0.00,NA,NA,0.00,WeatherLink_script,2013-05-15 11:29:00,
2013-05-15 07:34:00,51.7,45.1,29.95,South,182,2.7,4.0,78,0.00,NA,NA,0.00,WeatherLink_script,2013-05-15 11:34:00,
2013-05-15 07:39:00,51.8,44.8,29.96,South,179,3.3,5.0,77,0.00,NA,NA,0.00,WeatherLink_script,2013-05-15 11:39:00,
2013-05-15 07:44:00,51.8,45.2,29.95,South,180,2.6,4.0,78,0.00,NA,NA,0.00,WeatherLink_script,2013-05-15 11:44:00,
2013-05-15 07:49:00,52.0,45.0,29.95,South,173,3.5,5.0,77,0.00,NA,NA,0.00,WeatherLink_script,2013-05-15 11:49:00,
2013-05-15 07:54:00,52.1,44.8,29.95,South,181,3.1,5.0,76,0.00,NA,NA,0.00,WeatherLink_script,2013-05-15 11:54:00,
2013-05-15 08:01:00,52.4,45.4,29.95,SW,215,3.2,5.0,77,0.00,NA,NA,0.00,WeatherLink_script,2013-05-15 12:01:00,
2013-05-15 08:06:00,52.6,45.9,29.95,SSE,167,3.0,4.0,78,0.00,NA,NA,0.00,WeatherLink_script,2013-05-15 12:06:00,
2013-05-15 08:11:00,52.8,45.7,29.95,SSW,203,3.7,6.0,77,0.00,NA,NA,0.00,WeatherLink_script,2013-05-15 12:11:00,
2013-05-15 08:16:00,52.9,45.9,29.95,South,175,3.5,5.0,77,0.00,NA,NA,0.00,WeatherLink_script,2013-05-15 12:16:00,
2013-05-15 08:21:00,53.0,46.0,29.95,South,191,2.6,5.0,77,0.00,NA,NA,0.00,WeatherLink_script,2013-05-15 12:21:00,
2013-05-15 08:27:00,53.2,46.5,29.94,South,185,4.1,5.0,78,0.00,NA,NA,0.00,WeatherLink_script,2013-05-15 12:27:00,
2013-05-15 08:32:00,53.2,46.5,29.94,South,170,2.9,4.0,78,0.00,NA,NA,0.00,WeatherLink_script,2013-05-15 12:32:00,
2013-05-15 08:37:00,53.2,46.5,29.95,South,184,4.0,5.0,78,0.00,NA,NA,0.00,WeatherLink_script,2013-05-15 12:37:00,
2013-05-15 08:42:00,53.2,46.5,29.95,SSW,207,1.8,3.0,78,0.00,NA,NA,0.00,WeatherLink_script,2013-05-15 12:42:00,
2013-05-15 08:47:00,53.4,47.1,29.96,SW,224,2.4,3.0,79,0.00,NA,NA,0.00,WeatherLink_script,2013-05-15 12:47:00,
2013-05-15 08:52:00,53.6,47.2,29.96,SSE,164,3.8,5.0,79,0.00,NA,NA,0.00,WeatherLink_script,2013-05-15 12:52:00,
2013-05-15 08:57:00,53.9,47.6,29.96,SSW,193,3.8,5.0,79,0.00,NA,NA,0.00,WeatherLink_script,2013-05-15 12:57:00,
2013-05-15 09:02:00,54.5,47.8,29.95,South,180,3.3,5.0,78,0.00,NA,NA,0.00,WeatherLink_script,2013-05-15 13:02:00,
2013-05-15 09:07:00,55.0,48.3,29.95,SSW,209,3.8,5.0,78,0.00,NA,NA,0.00,WeatherLink_script,2013-05-15 13:07:00,
2013-05-15 09:12:00,55.9,49.1,29.95,South,189,3.0,4.0,78,0.00,NA,NA,0.00,WeatherLink_script,2013-05-15 13:12:00,
2013-05-15 09:19:00,57.0,49.5,29.96,SW,225,2.0,3.0,76,0.00,NA,NA,0.00,WeatherLink_script,2013-05-15 13:19:00,
2013-05-15 09:24:00,58.0,50.9,29.96,SSE,167,2.3,3.0,77,0.00,NA,NA,0.00,WeatherLink_script,2013-05-15 13:24:00,
2013-05-15 09:29:00,59.2,51.3,29.96,WSW,242,2.1,3.0,75,0.00,NA,NA,0.00,WeatherLink_script,2013-05-15 13:29:00,
2013-05-15 09:34:00,59.9,51.2,29.96,SSW,213,2.5,4.0,73,0.00,NA,NA,0.00,WeatherLink_script,2013-05-15 13:34:00,
2013-05-15 09:39:00,61.1,52.0,29.96,WSW,245,2.8,5.0,72,0.00,NA,NA,0.00,WeatherLink_script,2013-05-15 13:39:00,
2013-05-15 09:44:00,61.7,52.2,29.95,WSW,239,2.3,3.0,71,0.00,NA,NA,0.00,WeatherLink_script,2013-05-15 13:44:00,
2013-05-15 09:50:00,62.3,53.2,29.95,SW,234,2.4,4.0,72,0.00,NA,NA,0.00,WeatherLink_script,2013-05-15 13:50:00,
2013-05-15 09:55:00,62.8,53.6,29.95,West,279,1.7,3.0,72,0.00,NA,NA,0.00,WeatherLink_script,2013-05-15 13:55:00,
2013-05-15 10:00:00,63.4,53.9,29.95,SSE,161,1.8,4.0,71,0.00,NA,NA,0.00,WeatherLink_script,2013-05-15 14:00:00,
2013-05-15 10:05:00,64.0,53.2,29.94,SW,218,3.1,4.0,68,0.00,NA,NA,0.00,WeatherLink_script,2013-05-15 14:05:00,
2013-05-15 10:12:00,63.7,53.3,29.94,SW,218,2.2,4.0,69,0.00,NA,NA,0.00,WeatherLink_script,2013-05-15 14:12:00,
2013-05-15 10:18:00,63.3,53.3,29.94,SW,218,2.1,3.0,70,0.00,NA,NA,0.00,WeatherLink_script,2013-05-15 14:18:00,
2013-05-15 10:23:00,63.1,53.2,29.94,South,190,2.5,4.0,70,0.00,NA,NA,0.00,WeatherLink_script,2013-05-15 14:23:00,
2013-05-15 10:28:00,63.0,53.4,29.94,SW,228,3.4,5.0,71,0.00,NA,NA,0.00,WeatherLink_script,2013-05-15 14:28:00,
2013-05-15 10:33:00,63.0,53.8,29.94,SW,222,2.8,4.0,72,0.00,NA,NA,0.00,WeatherLink_script,2013-05-15 14:33:00,
2013-05-15 10:40:00,63.1,53.9,29.93,SW,231,3.2,5.0,72,0.00,NA,NA,0.00,WeatherLink_script,2013-05-15 14:40:00,
2013-05-15 10:45:00,63.6,54.8,29.93,SSE,157,3.2,4.0,73,0.00,NA,NA,0.00,WeatherLink_script,2013-05-15 14:45:00,
2013-05-15 10:50:00,64.7,55.5,29.93,SSW,205,3.4,6.0,72,0.00,NA,NA,0.00,WeatherLink_script,2013-05-15 14:50:00,
2013-05-15 10:56:00,66.5,55.6,29.93,WNW,282,3.8,6.0,68,0.00,NA,NA,0.00,WeatherLink_script,2013-05-15 14:56:00,
2013-05-15 11:01:00,68.1,56.7,29.93,SW,231,3.0,5.0,67,0.00,NA,NA,0.00,WeatherLink_script,2013-05-15 15:01:00,
2013-05-15 11:06:00,68.8,57.0,29.93,West,267,3.8,5.0,66,0.00,NA,NA,0.00,WeatherLink_script,2013-05-15 15:06:00,
2013-05-15 11:11:00,70.1,57.4,29.93,WSW,241,2.9,5.0,64,0.00,NA,NA,0.00,WeatherLink_script,2013-05-15 15:11:00,
2013-05-15 11:16:00,70.9,58.1,29.93,SW,220,1.8,3.0,64,0.00,NA,NA,0.00,WeatherLink_script,2013-05-15 15:16:00,
2013-05-15 11:21:00,72.0,58.3,29.92,South,180,2.1,4.0,62,0.00,NA,NA,0.00,WeatherLink_script,2013-05-15 15:21:00,
2013-05-15 11:27:00,72.5,58.3,29.93,West,270,1.2,2.0,61,0.00,NA,NA,0.00,WeatherLink_script,2013-05-15 15:27:00,
2013-05-15 11:33:00,73.1,60.2,29.92,SW,228,2.8,5.0,64,0.00,NA,NA,0.00,WeatherLink_script,2013-05-15 15:33:00,
2013-05-15 11:38:00,73.8,60.0,29.92,SSW,210,3.0,4.0,62,0.00,NA,NA,0.00,WeatherLink_script,2013-05-15 15:38:00,
2013-05-15 11:43:00,74.4,60.5,29.92,SSW,210,1.2,2.0,62,0.00,NA,NA,0.00,WeatherLink_script,2013-05-15 15:43:00,
2013-05-15 11:48:00,74.8,60.9,29.92,WSW,249,1.4,3.0,62,0.00,NA,NA,0.00,WeatherLink_script,2013-05-15 15:48:00,
2013-05-15 11:53:00,75.3,61.8,29.92,SSW,210,2.2,3.0,63,0.00,NA,NA,0.00,WeatherLink_script,2013-05-15 15:53:00,
2013-05-15 11:58:00,75.8,61.0,29.92,WNW,303,3.4,5.0,60,0.00,NA,NA,0.00,WeatherLink_script,2013-05-15 15:58:00,
2013-05-15 12:03:00,76.5,62.0,29.92,WNW,283,2.4,5.0,61,0.00,NA,NA,0.00,WeatherLink_script,2013-05-15 16:03:00,
2013-05-15 12:08:00,76.9,61.0,29.92,SW,231,2.5,3.0,58,0.00,NA,NA,0.00,WeatherLink_script,2013-05-15 16:08:00,
2013-05-15 12:13:00,77.3,60.9,29.92,WSW,255,2.9,5.0,57,0.00,NA,NA,0.00,WeatherLink_script,2013-05-15 16:13:00,
2013-05-15 12:18:00,77.8,62.3,29.91,WSW,248,3.2,5.0,59,0.00,NA,NA,0.00,WeatherLink_script,2013-05-15 16:18:00,
2013-05-15 12:24:00,78.2,60.7,29.91,WNW,298,2.5,3.0,55,0.00,NA,NA,0.00,WeatherLink_script,2013-05-15 16:24:00,
2013-05-15 12:30:00,78.3,60.3,29.91,WSW,237,2.2,5.0,54,0.00,NA,NA,0.00,WeatherLink_script,2013-05-15 16:30:00,
2013-05-15 12:35:00,78.5,62.5,29.90,South,188,3.0,4.0,58,0.00,NA,NA,0.00,WeatherLink_script,2013-05-15 16:35:00,
2013-05-15 12:40:00,78.7,61.2,29.90,SSW,203,3.0,6.0,55,0.00,NA,NA,0.00,WeatherLink_script,2013-05-15 16:40:00,
2013-05-15 12:45:00,79.1,61.5,29.90,WSW,243,3.4,5.0,55,0.00,NA,NA,0.00,WeatherLink_script,2013-05-15 16:45:00,
2013-05-15 12:51:00,79.4,61.8,29.90,SW,220,1.9,3.0,55,0.00,NA,NA,0.00,WeatherLink_script,2013-05-15 16:51:00,
2013-05-15 12:56:00,79.6,62.0,29.90,SW,225,3.2,6.0,55,0.00,NA,NA,0.00,WeatherLink_script,2013-05-15 16:56:00,
2013-05-15 13:01:00,79.8,62.2,29.89,WSW,240,3.7,6.0,55,0.00,NA,NA,0.00,WeatherLink_script,2013-05-15 17:01:00,
2013-05-15 13:06:00,80.0,62.9,29.89,SW,236,2.7,4.0,56,0.00,NA,NA,0.00,WeatherLink_script,2013-05-15 17:06:00,
2013-05-15 13:12:00,80.5,62.3,29.89,SSW,207,3.0,5.0,54,0.00,NA,NA,0.00,WeatherLink_script,2013-05-15 17:12:00,
2013-05-15 13:17:00,80.9,61.6,29.89,SW,235,5.0,8.0,52,0.00,NA,NA,0.00,WeatherLink_script,2013-05-15 17:17:00,
2013-05-15 13:22:00,81.1,63.4,29.89,SW,225,1.8,3.0,55,0.00,NA,NA,0.00,WeatherLink_script,2013-05-15 17:22:00,
2013-05-15 13:27:00,81.5,63.7,29.89,SW,228,2.6,5.0,55,0.00,NA,NA,0.00,WeatherLink_script,2013-05-15 17:27:00,
2013-05-15 13:32:00,81.9,63.6,29.88,South,172,2.9,5.0,54,0.00,NA,NA,0.00,WeatherLink_script,2013-05-15 17:32:00,
2013-05-15 13:38:00,82.2,63.4,29.88,SW,221,3.0,5.0,53,0.00,NA,NA,0.00,WeatherLink_script,2013-05-15 17:38:00,
2013-05-15 13:43:00,82.6,63.7,29.88,SW,221,4.0,5.0,53,0.00,NA,NA,0.00,WeatherLink_script,2013-05-15 17:43:00,
2013-05-15 13:48:00,82.9,63.5,29.88,SSW,209,0.8,2.0,52,0.00,NA,NA,0.00,WeatherLink_script,2013-05-15 17:48:00,
2013-05-15 13:53:00,83.4,64.4,29.87,West,269,1.9,3.0,53,0.00,NA,NA,0.00,WeatherLink_script,2013-05-15 17:53:00,
2013-05-15 13:58:00,83.6,64.1,29.87,WNW,302,2.5,4.0,52,0.00,NA,NA,0.00,WeatherLink_script,2013-05-15 17:58:00,
2013-05-15 14:03:00,84.0,65.0,29.87,South,188,2.5,4.0,53,0.00,NA,NA,0.00,WeatherLink_script,2013-05-15 18:03:00,
2013-05-15 14:08:00,84.2,64.1,29.87,SW,217,3.9,7.0,51,0.00,NA,NA,0.00,WeatherLink_script,2013-05-15 18:08:00,
2013-05-15 14:13:00,84.4,64.3,29.86,SSW,199,2.5,4.0,51,0.00,NA,NA,0.00,WeatherLink_script,2013-05-15 18:13:00,
2013-05-15 14:18:00,84.6,64.4,29.86,SSW,213,2.9,5.0,51,0.00,NA,NA,0.00,WeatherLink_script,2013-05-15 18:18:00,
2013-05-15 14:23:00,84.8,64.6,29.85,SW,235,4.5,8.0,51,0.00,NA,NA,0.00,WeatherLink_script,2013-05-15 18:23:00,
2013-05-15 14:28:00,85.0,64.2,29.85,SW,235,4.1,6.0,50,0.00,NA,NA,0.00,WeatherLink_script,2013-05-15 18:28:00,
2013-05-15 14:33:00,84.9,64.7,29.85,SSW,196,3.8,5.0,51,0.00,NA,NA,0.00,WeatherLink_script,2013-05-15 18:33:00,
2013-05-15 14:38:00,85.1,64.9,29.85,South,171,2.8,5.0,51,0.00,NA,NA,0.00,WeatherLink_script,2013-05-15 18:38:00,
2013-05-15 14:43:00,85.2,65.5,29.84,SSW,198,3.5,5.0,52,0.00,NA,NA,0.00,WeatherLink_script,2013-05-15 18:43:00,
2013-05-15 14:49:00,85.2,64.4,29.84,South,189,3.9,7.0,50,0.00,NA,NA,0.00,WeatherLink_script,2013-05-15 18:49:00,
2013-05-15 14:54:00,85.4,65.1,29.83,SW,215,4.7,7.0,51,0.00,NA,NA,0.00,WeatherLink_script,2013-05-15 18:54:00,
2013-05-15 14:59:00,85.4,65.2,29.83,West,271,3.0,5.0,51,0.00,NA,NA,0.00,WeatherLink_script,2013-05-15 18:59:00,
2013-05-15 15:04:00,85.4,64.0,29.83,SSW,208,3.6,5.0,49,0.00,NA,NA,0.00,WeatherLink_script,2013-05-15 19:04:00,
2013-05-15 15:09:00,85.2,64.4,29.83,SW,235,4.5,8.0,50,0.00,NA,NA,0.00,WeatherLink_script,2013-05-15 19:09:00,
2013-05-15 15:14:00,85.4,64.0,29.83,WSW,255,3.9,8.0,49,0.00,NA,NA,0.00,WeatherLink_script,2013-05-15 19:14:00,
2013-05-15 15:19:00,85.4,64.0,29.82,SW,236,3.9,6.0,49,0.00,NA,NA,0.00,WeatherLink_script,2013-05-15 19:19:00,
2013-05-15 15:25:00,85.2,65.0,29.82,SW,219,2.7,5.0,51,0.00,NA,NA,0.00,WeatherLink_script,2013-05-15 19:25:00,
2013-05-15 15:31:00,85.3,64.6,29.82,SSW,199,3.8,7.0,50,0.00,NA,NA,0.00,WeatherLink_script,2013-05-15 19:31:00,
2013-05-15 15:36:00,85.3,65.6,29.81,SW,217,4.7,7.0,52,0.00,NA,NA,0.00,WeatherLink_script,2013-05-15 19:36:00,
2013-05-15 15:41:00,85.5,65.8,29.81,SSW,204,2.1,4.0,52,0.00,NA,NA,0.00,WeatherLink_script,2013-05-15 19:41:00,
2013-05-15 15:46:00,85.6,65.4,29.80,SW,233,3.4,5.0,51,0.00,NA,NA,0.00,WeatherLink_script,2013-05-15 19:46:00,
2013-05-15 15:51:00,85.7,65.5,29.80,SSW,208,4.1,7.0,51,0.00,NA,NA,0.00,WeatherLink_script,2013-05-15 19:51:00,
2013-05-15 15:56:00,85.9,65.1,29.80,SW,224,3.1,7.0,50,0.00,NA,NA,0.00,WeatherLink_script,2013-05-15 19:56:00,
2013-05-15 16:01:00,86.2,64.8,29.80,WSW,246,3.9,7.0,49,0.00,NA,NA,0.00,WeatherLink_script,2013-05-15 20:01:00,
2013-05-15 16:06:00,86.2,65.3,29.80,SW,218,3.5,4.0,50,0.00,NA,NA,0.00,WeatherLink_script,2013-05-15 20:06:00,
2013-05-15 16:11:00,86.2,65.9,29.80,SW,217,2.9,6.0,51,0.00,NA,NA,0.00,WeatherLink_script,2013-05-15 20:11:00,
2013-05-15 16:16:00,86.2,65.9,29.80,SW,229,2.8,4.0,51,0.00,NA,NA,0.00,WeatherLink_script,2013-05-15 20:16:00,
2013-05-15 16:21:00,86.2,64.2,29.79,SW,224,3.3,6.0,48,0.00,NA,NA,0.00,WeatherLink_script,2013-05-15 20:21:00,
2013-05-15 16:27:00,86.2,64.8,29.79,SW,233,4.5,8.0,49,0.00,NA,NA,0.00,WeatherLink_script,2013-05-15 20:27:00,
2013-05-15 16:32:00,86.2,64.8,29.79,SW,235,2.9,5.0,49,0.00,NA,NA,0.00,WeatherLink_script,2013-05-15 20:32:00,
2013-05-15 16:37:00,86.2,64.8,29.79,SW,222,4.4,7.0,49,0.00,NA,NA,0.00,WeatherLink_script,2013-05-15 20:37:00,
2013-05-15 16:42:00,86.4,64.9,29.78,SW,220,4.0,7.0,49,0.00,NA,NA,0.00,WeatherLink_script,2013-05-15 20:42:00,
2013-05-15 16:47:00,86.4,64.4,29.78,SW,218,4.3,7.0,48,0.00,NA,NA,0.00,WeatherLink_script,2013-05-15 20:47:00,
2013-05-15 16:52:00,86.4,64.9,29.78,SW,214,3.3,6.0,49,0.00,NA,NA,0.00,WeatherLink_script,2013-05-15 20:52:00,
2013-05-15 16:58:00,86.6,64.5,29.78,WSW,244,4.6,8.0,48,0.00,NA,NA,0.00,WeatherLink_script,2013-05-15 20:58:00,
2013-05-15 17:03:00,86.6,64.5,29.78,SW,236,5.1,8.0,48,0.00,NA,NA,0.00,WeatherLink_script,2013-05-15 21:03:00,
2013-05-15 17:09:00,86.6,64.5,29.77,SSW,202,2.9,5.0,48,0.00,NA,NA,0.00,WeatherLink_script,2013-05-15 21:09:00,
2013-05-15 17:14:00,86.6,64.5,29.77,SSW,205,2.0,5.0,48,0.00,NA,NA,0.00,WeatherLink_script,2013-05-15 21:14:00,
2013-05-15 17:19:00,86.8,65.3,29.77,WNW,291,2.6,4.0,49,0.00,NA,NA,0.00,WeatherLink_script,2013-05-15 21:19:00,
2013-05-15 17:24:00,86.8,64.1,29.77,SW,221,3.1,5.0,47,0.00,NA,NA,0.00,WeatherLink_script,2013-05-15 21:24:00,
2013-05-15 17:30:00,86.8,64.7,29.77,West,262,2.5,4.0,48,0.00,NA,NA,0.00,WeatherLink_script,2013-05-15 21:30:00,
2013-05-15 17:35:00,86.8,64.7,29.77,WSW,254,4.0,7.0,48,0.00,NA,NA,0.00,WeatherLink_script,2013-05-15 21:35:00,
2013-05-15 17:40:00,86.7,65.2,29.77,SSW,202,4.2,6.0,49,0.00,NA,NA,0.00,WeatherLink_script,2013-05-15 21:40:00,
2013-05-15 17:45:00,86.6,64.5,29.77,WSW,245,3.0,6.0,48,0.00,NA,NA,0.00,WeatherLink_script,2013-05-15 21:45:00,
2013-05-15 17:50:00,86.4,64.9,29.77,West,270,3.8,6.0,49,0.00,NA,NA,0.00,WeatherLink_script,2013-05-15 21:50:00,
2013-05-15 17:55:00,86.4,64.9,29.77,WSW,246,3.9,5.0,49,0.00,NA,NA,0.00,WeatherLink_script,2013-05-15 21:55:00,
2013-05-15 18:00:00,86.2,65.3,29.76,SW,223,3.8,5.0,50,0.00,NA,NA,0.00,WeatherLink_script,2013-05-15 22:00:00,
2013-05-15 18:05:00,86.1,65.3,29.77,WSW,239,3.7,5.0,50,0.00,NA,NA,0.00,WeatherLink_script,2013-05-15 22:05:00,
2013-05-15 18:10:00,85.7,64.9,29.77,WSW,240,3.9,6.0,50,0.00,NA,NA,0.00,WeatherLink_script,2013-05-15 22:10:00,
2013-05-15 18:15:00,85.6,64.8,29.76,SW,224,3.1,6.0,50,0.00,NA,NA,0.00,WeatherLink_script,2013-05-15 22:15:00,
2013-05-15 18:20:00,85.3,64.5,29.76,West,262,3.1,4.0,50,0.00,NA,NA,0.00,WeatherLink_script,2013-05-15 22:20:00,
2013-05-15 18:25:00,85.2,65.0,29.76,WSW,237,4.5,8.0,51,0.00,NA,NA,0.00,WeatherLink_script,2013-05-15 22:25:00,
2013-05-15 18:30:00,85.2,65.0,29.76,SW,227,2.9,7.0,51,0.00,NA,NA,0.00,WeatherLink_script,2013-05-15 22:30:00,
2013-05-15 18:35:00,84.8,65.2,29.76,West,263,4.4,8.0,52,0.00,NA,NA,0.00,WeatherLink_script,2013-05-15 22:35:00,
2013-05-15 18:40:00,84.6,64.4,29.76,SSW,209,2.2,3.0,51,0.00,NA,NA,0.00,WeatherLink_script,2013-05-15 22:40:00,
2013-05-15 18:45:00,84.4,64.8,29.76,SSW,207,4.0,5.0,52,0.00,NA,NA,0.00,WeatherLink_script,2013-05-15 22:45:00,
2013-05-15 18:50:00,84.2,65.2,29.76,SW,236,2.8,4.0,53,0.00,NA,NA,0.00,WeatherLink_script,2013-05-15 22:50:00,
2013-05-15 18:55:00,84.0,65.0,29.77,SW,227,3.8,5.0,53,0.00,NA,NA,0.00,WeatherLink_script,2013-05-15 22:55:00,
2013-05-15 19:00:00,83.8,64.8,29.77,West,274,3.1,4.0,53,0.00,NA,NA,0.00,WeatherLink_script,2013-05-15 23:00:00,
2013-05-15 19:05:00,83.6,64.6,29.77,West,261,3.8,5.0,53,0.00,NA,NA,0.00,WeatherLink_script,2013-05-15 23:05:00,
2013-05-15 19:10:00,83.5,65.1,29.77,SW,224,4.0,6.0,54,0.00,NA,NA,0.00,WeatherLink_script,2013-05-15 23:10:00,
2013-05-15 19:15:00,83.2,64.8,29.77,SW,235,1.6,3.0,54,0.00,NA,NA,0.00,WeatherLink_script,2013-05-15 23:15:00,
2013-05-15 19:20:00,83.0,64.6,29.76,WSW,245,1.3,3.0,54,0.00,NA,NA,0.00,WeatherLink_script,2013-05-15 23:20:00,
2013-05-15 19:26:00,82.6,64.8,29.76,SW,224,2.0,3.0,55,0.00,NA,NA,0.00,WeatherLink_script,2013-05-15 23:26:00,
2013-05-15 19:31:00,82.4,64.6,29.77,WSW,249,2.7,5.0,55,0.00,NA,NA,0.00,WeatherLink_script,2013-05-15 23:31:00,
2013-05-15 19:36:00,82.1,64.3,29.77,SSW,208,4.1,6.0,55,0.00,NA,NA,0.00,WeatherLink_script,2013-05-15 23:36:00,
2013-05-15 19:41:00,81.8,64.6,29.77,WSW,241,1.9,3.0,56,0.00,NA,NA,0.00,WeatherLink_script,2013-05-15 23:41:00,
2013-05-15 19:48:00,81.2,64.5,29.78,SW,235,2.0,3.0,57,0.00,NA,NA,0.00,WeatherLink_script,2013-05-15 23:48:00,
2013-05-15 19:53:00,80.9,64.7,29.78,WSW,238,3.2,6.0,58,0.00,NA,NA,0.00,WeatherLink_script,2013-05-15 23:53:00,
2013-05-15 19:59:00,80.6,64.4,29.78,SW,231,5.2,8.0,58,0.00,NA,NA,0.00,WeatherLink_script,2013-05-15 23:59:00,
2013-05-15 20:04:00,80.2,64.1,29.78,WSW,249,2.4,3.0,58,0.00,NA,NA,0.00,WeatherLink_script,2013-05-16 00:04:00,
2013-05-15 20:11:00,79.9,63.8,29.78,SW,234,1.7,3.0,58,0.00,NA,NA,0.00,WeatherLink_script,2013-05-16 00:11:00,
2013-05-15 20:16:00,79.6,63.5,29.78,SW,232,2.3,4.0,58,0.00,NA,NA,0.00,WeatherLink_script,2013-05-16 00:16:00,
2013-05-15 20:21:00,79.4,63.3,29.78,SW,233,1.9,3.0,58,0.00,NA,NA,0.00,WeatherLink_script,2013-05-16 00:21:00,
2013-05-15 20:26:00,79.3,63.2,29.78,SW,232,1.0,2.0,58,0.00,NA,NA,0.00,WeatherLink_script,2013-05-16 00:26:00,
2013-05-15 20:31:00,78.9,63.3,29.79,WSW,238,2.4,5.0,59,0.00,NA,NA,0.00,WeatherLink_script,2013-05-16 00:31:00,
2013-05-15 20:36:00,78.5,63.4,29.79,WSW,247,2.6,4.0,60,0.00,NA,NA,0.00,WeatherLink_script,2013-05-16 00:36:00,
2013-05-15 20:41:00,78.1,63.1,29.79,SW,236,2.9,5.0,60,0.00,NA,NA,0.00,WeatherLink_script,2013-05-16 00:41:00,
2013-05-15 20:46:00,77.9,62.9,29.79,WSW,242,1.5,3.0,60,0.00,NA,NA,0.00,WeatherLink_script,2013-05-16 00:46:00,
2013-05-15 20:51:00,77.8,62.8,29.80,WSW,251,3.1,5.0,60,0.00,NA,NA,0.00,WeatherLink_script,2013-05-16 00:51:00,
2013-05-15 20:56:00,77.6,62.6,29.80,SW,214,2.6,3.0,60,0.00,NA,NA,0.00,WeatherLink_script,2013-05-16 00:56:00,
2013-05-15 21:02:00,77.2,62.3,29.80,SW,214,1.9,3.0,60,0.00,NA,NA,0.00,WeatherLink_script,2013-05-16 01:02:00,
2013-05-15 21:07:00,77.1,62.1,29.80,SW,215,1.4,2.0,60,0.00,NA,NA,0.00,WeatherLink_script,2013-05-16 01:07:00,
2013-05-15 21:12:00,76.9,61.5,29.81,SW,214,2.5,4.0,59,0.00,NA,NA,0.00,WeatherLink_script,2013-05-16 01:12:00,
2013-05-15 21:19:00,76.9,61.5,29.81,SW,214,1.5,2.0,59,0.00,NA,NA,0.00,WeatherLink_script,2013-05-16 01:19:00,
2013-05-15 21:24:00,76.5,61.1,29.81,SW,214,2.3,4.0,59,0.00,NA,NA,0.00,WeatherLink_script,2013-05-16 01:24:00,
2013-05-15 21:29:00,76.5,61.1,29.82,SSW,212,2.1,3.0,59,0.00,NA,NA,0.00,WeatherLink_script,2013-05-16 01:29:00,
2013-05-15 21:34:00,76.4,60.5,29.82,SW,218,2.8,4.0,58,0.00,NA,NA,0.00,WeatherLink_script,2013-05-16 01:34:00,
2013-05-15 21:39:00,76.2,59.8,29.82,SW,218,2.5,3.0,57,0.00,NA,NA,0.00,WeatherLink_script,2013-05-16 01:39:00,
2013-05-15 21:44:00,76.0,59.6,29.82,SW,218,2.1,3.0,57,0.00,NA,NA,0.00,WeatherLink_script,2013-05-16 01:44:00,
2013-05-15 21:50:00,75.8,59.0,29.82,SW,218,2.0,3.0,56,0.00,NA,NA,0.00,WeatherLink_script,2013-05-16 01:50:00,
2013-05-15 21:55:00,75.8,58.9,29.83,SW,218,1.8,3.0,56,0.00,NA,NA,0.00,WeatherLink_script,2013-05-16 01:55:00,
2013-05-15 22:01:00,75.7,57.3,29.83,SW,218,2.1,3.0,53,0.00,NA,NA,0.00,WeatherLink_script,2013-05-16 02:01:00,
2013-05-15 22:06:00,75.7,56.2,29.83,WSW,243,2.1,4.0,51,0.00,NA,NA,0.00,WeatherLink_script,2013-05-16 02:06:00,
2013-05-15 22:11:00,75.7,55.7,29.84,West,271,1.0,2.0,50,0.00,NA,NA,0.00,WeatherLink_script,2013-05-16 02:11:00,
2013-05-15 22:16:00,75.6,55.7,29.84,West,271,1.7,3.0,50,0.00,NA,NA,0.00,WeatherLink_script,2013-05-16 02:16:00,
2013-05-15 22:21:00,75.6,55.1,29.84,West,271,1.0,2.0,49,0.00,NA,NA,0.00,WeatherLink_script,2013-05-16 02:21:00,
2013-05-15 22:26:00,75.5,53.8,29.84,West,271,1.1,2.0,47,0.00,NA,NA,0.00,WeatherLink_script,2013-05-16 02:26:00,
2013-05-15 22:31:00,75.5,54.4,29.84,West,271,1.2,2.0,48,0.00,NA,NA,0.00,WeatherLink_script,2013-05-16 02:31:00,
2013-05-15 22:37:00,75.5,54.4,29.84,West,271,0.9,2.0,48,0.00,NA,NA,0.00,WeatherLink_script,2013-05-16 02:37:00,
2013-05-15 22:42:00,75.5,53.8,29.84,West,271,0.3,1.0,47,0.00,NA,NA,0.00,WeatherLink_script,2013-05-16 02:42:00,
2013-05-15 22:47:00,75.5,53.2,29.85,West,271,0.6,2.0,46,0.00,NA,NA,0.00,WeatherLink_script,2013-05-16 02:47:00,
2013-05-15 22:52:00,75.7,53.4,29.85,West,271,1.9,3.0,46,0.00,NA,NA,0.00,WeatherLink_script,2013-05-16 02:52:00,
2013-05-15 22:57:00,75.5,53.8,29.85,West,271,1.5,2.0,47,0.00,NA,NA,0.00,WeatherLink_script,2013-05-16 02:57:00,
2013-05-15 23:02:00,75.1,54.0,29.85,West,265,1.9,5.0,48,0.00,NA,NA,0.00,WeatherLink_script,2013-05-16 03:02:00,
2013-05-15 23:07:00,74.9,55.5,29.85,SW,218,0.9,2.0,51,0.00,NA,NA,0.00,WeatherLink_script,2013-05-16 03:07:00,
2013-05-15 23:14:00,74.8,54.9,29.85,SW,218,2.0,4.0,50,0.00,NA,NA,0.00,WeatherLink_script,2013-05-16 03:14:00,
2013-05-15 23:19:00,74.7,54.2,29.85,SW,218,1.8,3.0,49,0.00,NA,NA,0.00,WeatherLink_script,2013-05-16 03:19:00,
2013-05-15 23:25:00,74.6,54.7,29.85,SW,218,1.0,3.0,50,0.00,NA,NA,0.00,WeatherLink_script,2013-05-16 03:25:00,
2013-05-15 23:31:00,74.4,54.6,29.85,West,259,1.7,4.0,50,0.00,NA,NA,0.00,WeatherLink_script,2013-05-16 03:31:00,
2013-05-15 23:36:00,74.4,53.4,29.84,WSW,252,1.4,3.0,48,0.00,NA,NA,0.00,WeatherLink_script,2013-05-16 03:36:00,
2013-05-15 23:42:00,74.5,54.1,29.85,WSW,252,1.5,3.0,49,0.00,NA,NA,0.00,WeatherLink_script,2013-05-16 03:42:00,
2013-05-15 23:47:00,74.4,53.4,29.85,WSW,252,1.2,2.0,48,0.00,NA,NA,0.00,WeatherLink_script,2013-05-16 03:47:00,
2013-05-15 23:52:00,74.4,53.4,29.84,WSW,252,1.8,3.0,48,0.00,NA,NA,0.00,WeatherLink_script,2013-05-16 03:52:00,
2013-05-15 23:57:00,74.6,54.2,29.85,WSW,252,1.5,3.0,49,0.00,NA,NA,0.00,WeatherLink_script,2013-05-16 03:57:00,